Weather History for KVTI - February, 2014

Change the Weather History Date:

Tuesday, February 18, 2014

  Actual Average Record
Temperature  
Mean Temperature 32 °F -  
Max Temperature 46 °F 35 °F 65 °F (1981)
Min Temperature 19 °F 20 °F -14 °F (2006)
Degree Days  
Heating Degree Days 32    
Moisture  
Dew Point 25 °F    
Average Humidity 68    
Maximum Humidity 86    
Minimum Humidity 48    
Precipitation  
Precipitation 0.00 in - - ()
Sea Level Pressure  
Sea Level Pressure 29.70 in    
Wind  
Wind Speed 8 mph (SW)    
Max Wind Speed 18 mph    
Max Gust Speed 23 mph    
Visibility 10 miles    
Events      
Averages and records for this station are not official NWS values.
T = Trace of Precipitation, MM = Missing Value Source: NWS Daily Summary

Daily Weather History Graph

Daily Weather History Graph

Search for Another Location

Airport or City:

Trip Planner

Search our weather history database for the weather conditions in past years. The results will help you decide how hot, cold, wet, or windy it might be!

Date:

Astronomy

Feb. 18, 2014 Rise Set
Actual Time 7:00 AM CST 5:44 PM CST
Civil Twilight 6:31 AM CST 6:13 PM CST
Nautical Twilight 5:58 AM CST 6:45 PM CST
Astronomical Twilight 5:26 AM CST 7:18 PM CST
Moon 9:43 PM CST (2/18) 8:27 AM CST (2/18)
Length of Visible Light 11h 41m
Length of Day
10h 44m
Waning Gibbous, 87% of the Moon is Illuminated
Feb 18
Waning Gibbous
Feb 22
Last Quarter
Mar 1
New
Mar 8
First Quarter
Mar 16
Full

Hourly Weather History & Observations

Time (CST) Temp. Windchill Dew Point Humidity Pressure Visibility Wind Dir Wind Speed Gust Speed Precip Events Conditions
12:15 AM 29.7 °F - 22.8 °F 76% 29.87 in 10.0 mi Calm Calm - N/A   Clear
12:35 AM 24.1 °F 18.2 °F 18.5 °F 79% 29.87 in 10.0 mi South 4.6 mph - N/A   Clear
12:55 AM 23.5 °F 19.1 °F 19.2 °F 84% 29.87 in 10.0 mi SSE 3.5 mph - N/A   Clear
1:15 AM 21.9 °F 17.2 °F 17.2 °F 82% 29.88 in 10.0 mi South 3.5 mph - N/A   Clear
1:35 AM 22.1 °F 17.4 °F 18.0 °F 84% 29.88 in 10.0 mi South 3.5 mph - N/A   Clear
1:55 AM 22.5 °F 16.3 °F 18.1 °F 83% 29.87 in 10.0 mi South 4.6 mph - N/A   Clear
2:15 AM 20.8 °F 12.1 °F 16.7 °F 84% 29.86 in 10.0 mi South 6.9 mph - N/A   Clear
2:35 AM 19.6 °F 9.7 °F 15.6 °F 85% 29.85 in 10.0 mi SSE 8.1 mph - N/A   Clear
2:55 AM 20.8 °F 12.1 °F 17.2 °F 86% 29.83 in 10.0 mi South 6.9 mph - N/A   Clear
3:15 AM 20.8 °F 13.2 °F 16.9 °F 85% 29.83 in 10.0 mi South 5.8 mph - N/A   Clear
3:35 AM 20.8 °F 12.1 °F 16.5 °F 83% 29.82 in 10.0 mi SSE 6.9 mph - N/A   Clear
3:55 AM 20.8 °F 11.2 °F 16.3 °F 83% 29.80 in 10.0 mi SSE 8.1 mph - N/A   Clear
4:15 AM 20.8 °F 12.1 °F 16.2 °F 82% 29.79 in 10.0 mi South 6.9 mph - N/A   Clear
4:35 AM 22.6 °F 13.4 °F 17.4 °F 80% 29.78 in 10.0 mi SSE 8.1 mph - N/A   Clear
4:55 AM 24.1 °F 14.4 °F 18.3 °F 79% 29.77 in 10.0 mi South 9.2 mph - N/A   Clear
5:15 AM 24.6 °F 14.4 °F 18.3 °F 77% 29.76 in 10.0 mi South 10.4 mph - N/A   Clear
5:35 AM 25.2 °F 15.1 °F 18.5 °F 76% 29.75 in 10.0 mi South 10.4 mph - N/A   Clear
5:55 AM 29.3 °F 20.8 °F 21.4 °F 72% 29.75 in 10.0 mi South 9.2 mph - N/A   Clear
6:15 AM 29.7 °F 20.7 °F 21.7 °F 72% 29.73 in 10.0 mi South 10.4 mph - N/A   Clear
6:35 AM 29.7 °F 20.7 °F 21.0 °F 70% 29.71 in 10.0 mi South 10.4 mph - N/A   Clear
6:55 AM 30.9 °F 20.7 °F 21.2 °F 67% 29.70 in 10.0 mi South 13.8 mph 18.4 mph N/A   Clear
7:15 AM 29.8 °F 19.3 °F 20.3 °F 68% 29.69 in 10.0 mi South 13.8 mph 21.9 mph N/A   Clear
7:35 AM 30.9 °F 20.2 °F 21.2 °F 67% 29.69 in 10.0 mi South 15.0 mph 19.6 mph N/A   Clear
7:55 AM 32.0 °F 21.2 °F 22.5 °F 68% 29.68 in 10.0 mi South 16.1 mph 21.9 mph N/A   Clear
8:15 AM 32.0 °F 21.2 °F 22.6 °F 68% 29.68 in 10.0 mi South 16.1 mph - N/A   Clear
8:35 AM 34.3 °F 24.6 °F 24.3 °F 67% 29.68 in 10.0 mi South 15.0 mph 19.6 mph N/A   Clear
8:55 AM 34.3 °F 23.5 °F 23.0 °F 63% 29.66 in 10.0 mi South 18.4 mph 23.0 mph N/A   Clear
9:15 AM 35.6 °F 25.5 °F 23.5 °F 62% 29.65 in 10.0 mi South 17.3 mph 21.9 mph N/A   Clear
9:35 AM 36.9 °F 28.7 °F 24.4 °F 61% 29.64 in 10.0 mi South 12.7 mph - N/A   Clear
9:55 AM 36.9 °F 29.6 °F 24.1 °F 60% 29.64 in 10.0 mi South 10.4 mph - N/A   Clear
10:15 AM 39.4 °F 31.4 °F 25.2 °F 57% 29.64 in 10.0 mi South 13.8 mph - N/A   Clear
10:35 AM 39.4 °F 30.7 °F 25.0 °F 56% 29.63 in 10.0 mi South 16.1 mph - N/A   Clear
10:55 AM 40.6 °F 33.0 °F 25.5 °F 55% 29.63 in 10.0 mi SSW 13.8 mph - N/A   Clear
11:15 AM 41.9 °F 35.9 °F 26.4 °F 54% 29.63 in 10.0 mi SSW 10.4 mph - N/A   Clear
11:35 AM 42.1 °F 35.2 °F 26.6 °F 54% 29.62 in 10.0 mi SW 12.7 mph - N/A   Clear
11:55 AM 43.0 °F 35.7 °F 26.6 °F 52% 29.61 in 10.0 mi SSW 15.0 mph - N/A   Clear
12:15 PM 42.8 °F 35.4 °F 26.6 °F 53% 29.60 in 10.0 mi SSW 15.0 mph - N/A   Clear
12:35 PM 43.2 °F 37.0 °F 26.8 °F 52% 29.59 in 10.0 mi SSW 11.5 mph - N/A   Clear
12:55 PM 43.2 °F 37.0 °F 26.6 °F 52% 29.60 in 10.0 mi SSW 11.5 mph - N/A   Clear
1:15 PM 44.1 °F 39.0 °F 27.5 °F 52% 29.59 in 10.0 mi SSW 9.2 mph - N/A   Clear
1:35 PM 44.4 °F 39.5 °F 27.5 °F 52% 29.59 in 10.0 mi SSW 9.2 mph 16.1 mph N/A   Clear
1:55 PM 46.9 °F - 28.4 °F 49% 29.60 in 10.0 mi WSW 11.5 mph 18.4 mph N/A   Clear
2:15 PM 46.9 °F - 27.9 °F 48% 29.60 in 10.0 mi WSW 10.4 mph - N/A   Clear
2:35 PM 46.8 °F - 28.9 °F 50% 29.60 in 10.0 mi West 8.1 mph - N/A   Clear
2:55 PM 46.8 °F - 28.8 °F 50% 29.60 in 10.0 mi West 6.9 mph - N/A   Clear
3:15 PM 45.3 °F 41.6 °F 27.9 °F 51% 29.60 in 10.0 mi West 6.9 mph - N/A   Clear
3:35 PM 44.6 °F 39.2 °F 27.1 °F 50% 29.60 in 10.0 mi WSW 10.4 mph - N/A   Clear
3:55 PM 44.2 °F 38.4 °F 27.5 °F 52% 29.60 in 10.0 mi West 11.5 mph - N/A   Clear
4:15 PM 43.0 °F 38.8 °F 27.7 °F 55% 29.61 in 10.0 mi West 6.9 mph - N/A   Clear
4:35 PM 43.2 °F 37.9 °F 28.2 °F 56% 29.61 in 10.0 mi West 9.2 mph - N/A   Clear
4:55 PM 42.8 °F 38.0 °F 28.2 °F 56% 29.63 in 10.0 mi West 8.1 mph - N/A   Clear
5:15 PM 42.1 °F 37.1 °F 28.2 °F 58% 29.63 in 10.0 mi West 8.1 mph - N/A   Clear
5:35 PM 41.2 °F 36.0 °F 28.6 °F 61% 29.64 in 10.0 mi West 8.1 mph - N/A   Clear
5:55 PM 40.6 °F 35.4 °F 28.4 °F 62% 29.65 in 10.0 mi West 8.1 mph - N/A   Clear
6:15 PM 39.4 °F 33.8 °F 28.6 °F 65% 29.66 in 10.0 mi West 8.1 mph - N/A   Clear
6:35 PM 39.4 °F 34.5 °F 29.3 °F 67% 29.67 in 10.0 mi West 6.9 mph - N/A   Clear
6:55 PM 39.4 °F 35.2 °F 29.8 °F 69% 29.68 in 10.0 mi WNW 5.8 mph - N/A   Clear
7:15 PM 36.9 °F 32.2 °F 28.6 °F 72% 29.69 in 10.0 mi WNW 5.8 mph - N/A   Clear
7:35 PM 36.9 °F 29.6 °F 29.1 °F 74% 29.70 in 10.0 mi WNW 10.4 mph - N/A   Clear
7:55 PM 36.9 °F 29.1 °F 30.0 °F 76% 29.72 in 10.0 mi WNW 11.5 mph 18.4 mph N/A   Clear
8:15 PM 36.9 °F 29.6 °F 29.8 °F 76% 29.72 in 10.0 mi WNW 10.4 mph - N/A   Clear
8:35 PM 36.9 °F 30.1 °F 29.8 °F 76% 29.73 in 10.0 mi NW 9.2 mph - N/A   Clear
8:55 PM 36.9 °F 28.2 °F 29.3 °F 74% 29.73 in 10.0 mi NW 13.8 mph - N/A   Clear
9:15 PM 36.9 °F 28.7 °F 28.2 °F 71% 29.74 in 10.0 mi NW 12.7 mph - N/A   Clear
9:35 PM 36.9 °F 28.7 °F 28.2 °F 71% 29.75 in 10.0 mi NW 12.7 mph - N/A   Clear
9:55 PM 36.9 °F 31.4 °F 28.8 °F 72% 29.74 in 10.0 mi NW 6.9 mph - N/A   Clear
10:15 PM 36.9 °F 31.4 °F 28.9 °F 73% 29.74 in 10.0 mi WNW 6.9 mph - N/A   Clear
10:35 PM 36.9 °F 30.1 °F 29.8 °F 76% 29.75 in 10.0 mi NNW 9.2 mph - N/A   Clear
10:55 PM 36.9 °F 29.6 °F 30.7 °F 79% 29.76 in 10.0 mi NW 10.4 mph 18.4 mph N/A   Clear
11:15 PM 36.9 °F 30.1 °F 31.1 °F 80% 29.76 in 10.0 mi NNW 9.2 mph - N/A   Scattered Clouds
11:55 PM 34.3 °F 27.0 °F 29.8 °F 84% 29.77 in 10.0 mi WNW 9.2 mph - N/A   Clear